This is the latest recevied weather packets stored in our database for station/object VK5FR. If no packets are shown the sender has not sent any weather packets the latest 10 day(s).
| Time | Temp. | Humidity | Pressure | Rain* | Wind** | Luminosity | Snow |
|---|---|---|---|---|---|---|---|
| 1777852777 | 16.67° C | 75% | 1011.7 hPa | 0 mm | - | - | - |
| 1777852474 | 16.11° C | 76% | 1011.7 hPa | 0 mm | - | - | - |
| 1777852171 | 16.11° C | 76% | 1011.9 hPa | 0 mm | - | - | - |
| 1777851869 | 16.11° C | 75% | 1011.7 hPa | 0 mm | - | - | - |
| 1777851567 | 16.67° C | 76% | 1011.4 hPa | 0 mm | - | - | - |
| 1777851263 | 16.11° C | 76% | 1011.5 hPa | 0 mm | - | - | - |
| 1777850960 | 16.11° C | 75% | 1011.4 hPa | 0 mm | - | - | - |
| 1777850657 | 16.67° C | 75% | 1011.1 hPa | 0 mm | - | - | - |
| 1777850354 | 16.11° C | 76% | 1011.3 hPa | 0 mm | - | - | - |
| 1777850052 | 16.11° C | 76% | 1011.3 hPa | 0 mm | - | - | - |
| 1777849748 | 16.67° C | 76% | 1011.1 hPa | 0 mm | - | - | - |
| 1777849444 | 16.11° C | 76% | 1011 hPa | 0 mm | - | - | - |
| 1777849142 | 16.11° C | 76% | 1010.8 hPa | 0 mm | - | - | - |
| 1777848838 | 16.11° C | 77% | 1010.7 hPa | 0 mm | - | - | - |
| 1777848534 | 16.11° C | 76% | 1010.8 hPa | 0 mm | - | - | - |
| 1777848231 | 16.11° C | 77% | 1010.8 hPa | 0 mm | - | - | - |
| 1777847929 | 16.11° C | 79% | 1010.4 hPa | 0 mm | - | - | - |
| 1777847627 | 16.11° C | 81% | 1010.4 hPa | 0 mm | - | - | - |
| 1777847322 | 15.56° C | 82% | 1010.3 hPa | 0 mm | - | - | - |
| 1777847021 | 16.11° C | 83% | 1010.2 hPa | 0 mm | - | - | - |
| 1777846719 | 16.11° C | 82% | 1010 hPa | 0 mm | - | - | - |
| 1777846417 | 16.11° C | 80% | 1010.1 hPa | 0 mm | - | - | - |
| 1777846112 | 16.11° C | 80% | 1010 hPa | 0 mm | - | - | - |
| 1777845810 | 15.56° C | 82% | 1010 hPa | 0 mm | - | - | - |
| 1777845507 | 15.56° C | 85% | 1009.8 hPa | 0 mm | - | - | - |
* Rain latest hour (hover to see other rain measurements)
** Current wind speed in m/s (hover to see current wind gust speed)